リニア彗星

C/2017 B3 ( LINEAR )

English version
Home page
Updated on February 13, 2018

---------------------------------------------------------------------

・ プロフィール

発見日 2017年1月26日
発見光度 19.2等
発見者 LINEAR survey (Space Surveillance Telescope, Atom Peak, White Sands Missile Range, NM, USA)

・ 写真集

・ 軌道要素

Epoch 2019 Feb. 6.0 TT = JDT 2458520.5
T 2019 Feb. 2.50002 TT                                  MPCW
q   3.9211613            (2000.0)            P               Q
z  -0.0005459      Peri.  284.74912     +0.27590815     +0.96069008
 +/-0.0000028      Node     2.17759     -0.19810151     +0.08820191
e   1.0021407      Incl.   54.17939     -0.94054797     +0.26323941
From 208 observations 2017 Jan. 26-2018 Jan. 27, mean residual 0".5.

・ 星図

・ 光度変化

        m1 = 5.7 + 5 logΔ + 10.0 log r

---------------------------------------------------------------------

軌道要素はM.P.E.C. 2018-B155に掲載されたものです。
星図はステラナビゲータ Ver.10 (アストロアーツ) で作成したものです。
光度グラフはComet for Windowsで作成したものです。

---------------------------------------------------------------------

Copyright(C) Seiichi Yoshida (comet@aerith.net). All rights reserved.